Flag for U.S.A. Weather past 2 weeks in Pasadena, Texas, U.S.A.

Now
55 °F

Passing clouds.


Feels Like: 55 °F
Forecast: 55 / 70 °F
Wind: 3 mph from East

Location: Houston / Ellington

Current Time: Dec 21, 2014 at 10:13:50 PM

Latest Report: Dec 21, 2014 at 8:50 PM


Visibility: 10 mi

Pressure: 29.94 "Hg

Humidity: 88%

Dew point: 52 °F

Location of PasadenaLocation

Historic Weather in Pasadena — Graph

°F

Pasadena temperature yesterday

Maximum temperature yesterday: 54 °F (at 12:50 AM)
Minimum temperature yesterday: 52 °F (at 2:50 AM)
Average temperature yesterday: 53 °F

Past Weeks' High & Low Weather Summary

 TemperatureHumidityPressure
High81 °F (Dec 15, 1:50 PM)100% (Dec 18, 7:50 AM)30.37 "Hg (Dec 18, 7:50 AM)
Low48 °F (Dec 17, 3:50 AM)32% (Dec 16, 2:50 PM)29.94 "Hg (Dec 15, 4:50 AM)
Average61 °F79%30.18 "Hg
* Reported Dec 6 8:50 PM — Dec 21 8:50 PM, Pasadena, Weather by CustomWeather, © 2014

Note: Actual official high and low records may vary slightly from our data, if they occured in-between our weather recording intervals... More about our weather records

Advertising

Pasadena weather history for previous 24 hours

 ConditionsComfort  
Time TempWeatherWind HumidityBarometerVisibility
8:50 PM
Dec 21
55 °FPassing clouds.3 mph88%29.94 "Hg10 mi
7:50 PM55 °FPassing clouds.No wind88%29.95 "Hg10 mi
6:50 PM55 °FPassing clouds.7 mph88%29.95 "Hg9 mi
4:50 PM59 °FScattered clouds.7 mph77%29.97 "Hg10 mi
3:50 PM61 °FBroken clouds.7 mph68%29.98 "Hg10 mi
2:50 PM59 °FPartly sunny.8 mph72%30.00 "Hg10 mi
1:50 PM63 °FPartly sunny.3 mph64%30.00 "Hg10 mi
12:50 PM61 °FBroken clouds.3 mph68%30.04 "Hg10 mi
11:50 AM57 °FBroken clouds.3 mph77%30.10 "Hg10 mi
10:50 AM55 °FPartly sunny.3 mph77%30.14 "Hg10 mi
9:50 AM52 °FPartly sunny.No wind88%30.13 "Hg10 mi
8:50 AM50 °FPartly sunny.8 mph94%30.13 "Hg10 mi
7:50 AM50 °FOvercast.3 mph94%30.14 "Hg10 mi
6:50 AM50 °FOvercast.7 mph94%30.13 "Hg10 mi
5:50 AM50 °FOvercast.6 mph94%30.13 "Hg10 mi
4:50 AM50 °FOvercast.7 mph94%30.12 "Hg10 mi
2:50 AM52 °FOvercast.5 mph94%30.16 "Hg10 mi
1:50 AM52 °FOvercast.3 mph94%30.16 "Hg10 mi
12:50 AM52 °FOvercast.7 mph94%30.18 "Hg10 mi
11:50 PM
Dec 20
52 °FOvercast.7 mph88%30.19 "Hg10 mi
10:50 PM52 °FOvercast.6 mph88%30.20 "Hg10 mi
Weather by CustomWeather, © 2014

See weather overviewHow to use our weather pages